Weather Roundup
Issued by NWS

Home | Current Version | Previous Version | Graphics & Text | Print | Product List | Glossary Off
Versions: 1 2 3 4 5 6 7 8 9 10 11 12 13 14 15 16 17 18 19 20 21 22 23 24 25 26 27 28 29 30 31 32 33 34 35 36 37 38 39 40 41 42 43 44 45 46 47 48 49 50

000
NZUS93 KARX 041910
HRRWXR

CURRENT HOURLY OBSERVATIONS ACROSS
MUCH OF THE UPPER MISSISSIPPI VALLEY
NATIONAL WEATHER SERVICE LA CROSSE WI
200 PM CDT TUE AUG 04 2015


...SOUTHEAST MINNESOTA...


CITY           SKY/WX    TMP DP  RH WIND       PRES   REMARKS
ROCHESTER      MOSUNNY   75  55  49 NW9       30.03F
ROCHESTER/MAYO FAIR      75  49  39 NW6       30.02F
WINONA         MOSUNNY   79  54  41 W6        29.99F
AUSTIN         PTSUNNY   77  48  36 CALM      30.03S
ALBERT LEA     PTSUNNY   75  48  38 SE3       30.02F
DODGE CENTER   MOSUNNY   73  50  43 W3        30.03S
PRESTON        PTSUNNY   73  54  51 NW5       30.04S
OWATONNA       MOSUNNY   75  46  35 CALM      30.02S
FARIBAULT      MOSUNNY   77  54  44 SW6       30.02S
$$

...ELSEWHERE IN MINNESOTA...


CITY           SKY/WX    TMP DP  RH WIND       PRES   REMARKS
MINNEAPOLIS    MOSUNNY   80  51  36 W12       29.99F
INTNL FALLS    MOSUNNY   64  48  56 NE8       30.03S
DULUTH         MOSUNNY   73  50  44 W13G20    29.98S
RED WING       SUNNY     81  48  32 W9        29.98F
REDWOOD FALLS  MOSUNNY   80  46  30 VRB3      29.99F
MANKATO        MOSUNNY   75  48  38 S5        30.01S
WORTHINGTON    PTSUNNY   73  57  56 SE9       30.01S
FAIRMONT       PTSUNNY   75  46  35 SE7       30.01F
$$

...SOUTHWEST WISCONSIN...


CITY           SKY/WX    TMP DP  RH WIND       PRES   REMARKS
LA CROSSE      MOSUNNY   79  52  38 W9        29.99F
PRAIRIE DU CHI PTSUNNY   77  49  37 W6        30.00F
BOSCOBEL       PTSUNNY   82  51  34 NW9       30.00F
LONE ROCK      PTSUNNY   80  51  36 W13       30.00F
PLATTEVILLE    PTSUNNY   77  54  44 NW9G16    30.01F
FORT MC COY    MOSUNNY   79  47  31 W13G18    30.00F
CAMP DOUGLAS   PTSUNNY   77  54  44 W13       29.99S
VIROQUA        FAIR      75  52  43 NW8       30.02F
WIS DELLS      PTSUNNY   77  45  32 W12G17    29.99F
$$

...ELSEWHERE IN WISCONSIN...


CITY           SKY/WX    TMP DP  RH WIND       PRES   REMARKS
MILWAUKEE      PTSUNNY   79  47  32 W15       29.96S
MADISON        PTSUNNY   77  52  41 NW8       29.99S
GREEN BAY      SUNNY     76  54  46 NW15      29.94S
EAU CLAIRE     PTSUNNY   78  52  40 W10       29.98S
BLACK RVR FLS  MOCLDY    80  46  30 W12G20    29.99S
MEDFORD        CLOUDY    71  51  49 NW9G21    29.99S
WAUSAU         MOSUNNY   74  50  42 NW12      29.96S
WIS RAPIDS     CLOUDY    77  50  38 N13       30.00R
MARSHFIELD     CLOUDY    73  50  44 W12       29.99S
RICE LAKE      CLOUDY    76  51  41 W10G16    30.00S
$$

...NORTHEAST IOWA...


CITY           SKY/WX    TMP DP  RH WIND       PRES   REMARKS
DECORAH        PTSUNNY   75  54  46 VRB5      30.02S
MASON CITY     NOT AVBL
CHARLES CITY   PTSUNNY   75  52  43 NE5       30.03F
OELWEIN        PTSUNNY   77  55  47 VRB6      30.04R
$$

...ELSEWHERE IN IOWA...


CITY           SKY/WX    TMP DP  RH WIND       PRES   REMARKS
DES MOINES     CLOUDY    77  59  53 E6        29.99F
IOWA CITY      CLOUDY    77  62  59 SW8       30.03F
FORT DODGE     CLOUDY    77  61  57 E6        30.01F
$$

...NORTHERN ILLINOIS...


CITY           SKY/WX    TMP DP  RH WIND       PRES   REMARKS
CHICAGO-OHARE  PTSUNNY   81  52  36 W16G22    29.97S
CHICAGO-MIDWAY PTSUNNY   83  52  34 W9G18     29.97R
MOLINE         CLOUDY    79  60  52 W12       30.02R
ROCKFORD       CLOUDY    81  53  37 NW16      30.01R
PEORIA         CLOUDY    82  57  42 W7        30.03S
$$

NOTE: "FAIR" INDICATES FEW OR NO CLOUDS BELOW 12,000 FEET WITH NO
SIGNIFICANT WEATHER AND/OR OBSTRUCTIONS TO VISIBILITY. WIND
SPEEDS ARE IN MILES-PER-HOUR.



USA.gov is the U.S. government's official web portal to all federal, state and local government web resources and services.